Location: *
(40.2500°N, 4.3167°W)
Time: 13:22:27
(UTC+00:00)

Daily predictions for brighter satellites

Satellite Brightness Start Highest point End
(mag) Time Altitude Azimuth Time Altitude Azimuth Time Altitude Azimuth
GP-B 3.1 20:09:48 10° N 20:14:11 86° E 20:18:34 10° S
ADEOS 3.6 20:09:12 10° SSE 20:14:24 85° ENE 20:19:38 10° NNW
Helios 1A 4.3 20:15:22 10° NE 20:18:12 19° E 20:21:01 10° SE
Cosmos 220 Rocket 4.0 20:16:12 10° NNW 20:20:27 82° WSW 20:24:41 10° SSE
CZ-4C R/B 2.7 20:22:49 10° SSE 20:25:55 22° ESE 20:29:28 10° ENE
CSL-04 Debris 4.4 20:20:49 10° S 20:26:10 76° WSW 20:31:32 10° NNW
CZ-2C R/B 3.4 20:24:29 10° S 20:27:35 45° W 20:30:41 10° NNW
Cosmos 1782 Rocket 4.2 20:24:28 10° NNW 20:28:50 59° W 20:33:06 10° S
Cosmos 1656 Rocket 3.8 20:24:27 10° SSW 20:30:01 80° WNW 20:35:33 10° NNE
Cosmos 2297 3.7 20:26:34 10° S 20:32:05 61° ESE 20:37:41 10° NNE
Cosmos 2242 Rocket 3.5 20:28:20 10° S 20:32:41 80° E 20:37:05 10° N
Feng Yun 1-1 Rocket 4.4 20:28:21 10° SSE 20:34:07 82° WSW 20:39:46 10° NNW
CSL-04 Rocket 4.2 20:30:41 10° S 20:36:00 61° WSW 20:41:27 10° NNW
Cosmos 1503 Rocket 4.0 20:33:36 10° S 20:38:41 63° ESE 20:43:47 10° NNE
Cosmos 2208 Rocket 4.0 20:34:53 10° NNW 20:40:10 81° ENE 20:45:31 10° SSE
Tiangong -1.6 20:39:33 10° SW 20:42:36 39° SSE 20:45:42 10° E
Cosmos 44 3.6 20:38:50 10° S 20:42:41 34° ESE 20:46:37 10° NE
Meteor PRIRODA 3.4 20:41:52 15° SE 20:43:55 43° ENE 20:46:37 10° N
COSMOS 2406 3.6 20:38:18 10° NNW 20:43:59 65° WSW 20:49:38 10° S
CZ-4B R/B 3.4 20:40:49 10° S 20:46:10 72° WSW 20:51:39 10° NNW
ISS -0.8 20:45:00 10° NNW 20:46:23 12° N 20:47:46 10° NNE
GRACE-FO 1 4.4 20:44:54 10° S 20:48:21 88° E 20:51:51 10° N
GRACE-FO 2 4.4 20:45:23 10° S 20:48:49 90° E 20:52:19 10° N
Cosmos 1354 Rocket 4.1 20:43:49 10° S 20:48:53 54° ESE 20:53:58 10° NNE
Cosmos 773 Rocket 4.0 20:44:36 10° NNW 20:49:55 81° ENE 20:54:42 13° SSE
Cosmos 1674 Rocket 3.8 20:46:34 10° SSE 20:50:48 49° E 20:55:05 10° NNE
MOS 1-B 4.3 20:45:53 10° SSE 20:51:39 82° ENE 20:57:27 10° NNW
In-Cosmos 22 Rocket 4.3 20:47:28 10° S 20:53:13 67° E 20:58:56 10° NNE
CZ-4 R/B 3.6 20:50:37 10° SW 20:53:29 21° W 20:56:23 10° NW
Cosmos 1634 Rocket 4.0 20:49:25 10° N 20:55:37 84° W 21:01:46 10° S
USA 186 3.7 20:53:42 10° SSW 20:55:55 22° W 20:58:09 10° NW
Cosmos 2082 Rocket 3.9 20:51:48 10° NW 20:56:39 29° WSW 21:01:29 10° SSW
Ariane Rocket 4.3 20:54:15 15° ESE 20:57:18 25° ENE 21:01:21 10° NNE
CZ-4B R/B 3.7 20:52:45 10° S 20:57:59 77° WSW 21:03:10 10° NNW
DELTA 2 R/B (1) 3.6 20:56:22 10° WSW 21:01:48 60° SSE 21:07:15 10° E
Terra 1.8 20:58:30 14° SSE 21:02:31 77° ENE 21:07:14 10° N
NOSS 5 (C) 4.3 21:00:16 10° NW 21:03:31 75° SW 21:05:26 23° SSE
Cosmos 2369 Rocket 2.4 20:59:39 10° SSW 21:05:21 75° WNW 21:11:03 10° NNE
Cosmos 1378 Rocket 3.6 21:01:47 10° S 21:06:04 80° W 21:10:22 10° N
Cosmos 1777 Rocket 4.4 21:01:51 10° SSW 21:07:01 66° WNW 21:12:12 10° NNE
Cosmos 1025 Rocket 3.4 21:04:57 18° SSE 21:07:52 46° E 21:12:02 10° NNE
Okean-O 2.6 21:06:40 16° SSE 21:10:09 88° WSW 21:14:34 10° NNW
Cosmos 2279 Rocket 4.0 21:04:40 10° N 21:10:57 87° E 21:16:38 13° S
Meteor 2-12 Rocket 4.5 21:05:23 10° S 21:11:26 63° E 21:17:28 10° NNE
USA 245 3.5 21:09:58 23° SE 21:12:22 53° ENE 21:15:47 10° N
Cosmos 1869 2.9 21:09:51 10° N 21:13:25 80° E 21:15:22 25° SSE
Okean O Rocket 2.1 21:11:29 12° S 21:15:27 56° W 21:19:47 10° NNW
TSX-5 3.4 21:12:58 10° NNW 21:16:09 73° WSW 21:17:51 28° SSE
CZ-4B R/B 3.9 21:13:44 10° SSW 21:17:01 37° W 21:20:30 10° NNW
Cosmos 1340 Rocket 3.5 21:13:28 10° NNW 21:17:10 47° W 21:20:20 13° SSW
Helios 1B rocket 3.4 21:26:16 14° SSW 21:29:00 37° W 21:32:27 10° NNW
Spot 2 Rocket 3.5 21:28:30 23° SSE 21:31:46 86° WSW 21:36:52 10° NNW
NOSS 3-4 (A) 4.0 21:24:42 10° NW 21:31:47 86° WSW 21:37:06 24° SSE
NOSS 3-4 (C) 3.9 21:24:44 10° NW 21:31:50 87° WSW 21:37:05 25° SSE
Cosmos 1867 3.8 21:29:13 15° S 21:33:31 48° ESE 21:38:45 10° NE
SPOT 3 Rocket 3.7 21:32:07 29° SE 21:34:44 62° ENE 21:39:52 10° N
Cosmos 1812 2.8 21:32:15 10° N 21:35:15 39° E 21:35:17 39° E
Cosmos 1900 4.2 21:33:23 10° SSW 21:38:21 75° ESE 21:43:25 10° NNE
Cosmos 1898 Rocket 4.0 21:38:07 32° SE 21:39:35 39° ESE 21:44:26 10° NE
ERS-1 Rocket 4.1 21:35:49 12° SSW 21:40:07 39° W 21:44:48 10° NNW
IRS-1C Rocket 4.1 21:47:01 30° S 21:49:40 83° WSW 21:54:58 10° NNW
Cosmos 1818 3.6 21:44:22 10° NW 21:49:48 79° WSW 21:52:03 36° SSE
Cosmos 1538 Rocket 4.4 21:44:39 10° N 21:49:54 51° ENE 21:51:46 35° ESE
Okean 2 Rocket 4.1 21:55:31 10° NNW 21:59:37 41° W 22:01:49 23° SSW
Cosmos 2098 Rocket 4.2 21:59:54 10° NNE 22:02:14 24° ENE 22:02:14 24° ENE
Cosmos 2228 4.0 22:04:28 10° NNE 22:08:13 31° ENE 22:08:13 31° ENE
Cosmos 1975 Rocket 2.9 22:08:20 62° SE 22:08:44 66° E 22:13:01 10° NNE
Cosmos 1627 Rocket 4.4 22:07:44 36° S 22:10:23 76° E 22:16:30 10° N
Okean 1 Rocket 4.1 22:06:38 10° NNW 22:10:42 40° W 22:12:22 28° SW
Cosmos 1833 4.5 22:06:36 10° NNW 22:12:10 61° WSW 22:14:12 38° S
CZ-4C R/B 3.2 22:09:46 10° WSW 22:13:41 36° NW 22:18:32 10° NNE
Cosmos 372 Rocket 3.8 22:11:45 35° SSW 22:13:57 87° WNW 22:19:03 10° NNE
Aureole 1 Rocket 4.2 22:10:31 19° SSW 22:15:20 82° WNW 22:22:47 10° NNE
Tiangong -0.6 22:16:22 10° W 22:18:21 33° W 22:18:21 33° W
Cosmos 1455 Rocket 3.1 22:16:58 10° NNW 22:21:16 71° W 22:21:51 61° SSW
ISS -1.8 22:21:18 10° NNW 22:24:04 23° NNE 22:24:31 23° NE
Cosmos 1656 3.7 22:26:03 53° SE 22:26:33 55° ESE 22:31:58 10° NNE
COBE Rocket 4.2 22:24:34 10° N 22:29:07 57° WNW 22:30:41 37° SW
Cosmos 1937 Rocket 3.4 22:34:44 56° SSW 22:35:51 86° WNW 22:41:00 10° NNE
Ariane Rocket 4.0 22:34:21 30° SW 22:35:57 38° W 22:40:39 10° NNW
Cosmos 2026 Rocket 4.2 22:35:12 32° SSW 22:38:03 63° W 22:44:05 10° N
DELTA 2 DEB (DPAF) 4.3 22:37:15 10° NNE 22:40:19 52° NE 22:40:19 52° NE
RESURS DK-1 3.5 22:39:15 10° N 22:42:29 32° NE 22:42:29 32° NE
Cosmos 1400 Rocket 4.1 22:41:01 10° N 22:43:33 31° NE 22:43:33 31° NE
Cosmos 1680 Rocket 3.9 22:40:08 10° N 22:45:17 49° ENE 22:45:47 48° E
DELTA 2 R/B (1) 3.4 22:42:32 10° W 22:48:05 85° S 22:49:04 61° E
SL-08 ROCKET BODY 4.4 22:47:35 54° ESE 22:48:10 56° E 22:53:55 10° NNE
Cosmos 858 Rocket 4.3 22:49:23 72° SSW 22:49:56 88° WNW 22:55:08 10° NNE
ARIANE 5 R/B 3.6 22:51:38 37° ENE 22:51:38 37° ENE 22:55:26 10° N
Cosmos 2058 4.5 22:53:29 25° NE 22:53:29 25° NE 22:55:32 10° NNE
CZ-2C R/B 4.2 22:50:10 10° NNE 22:54:09 52° ENE 22:54:09 52° ENE
Lacrosse 5 rocket 4.2 22:55:04 10° N 22:56:03 11° NNE 22:57:02 10° NE
Cosmos 923 Rocket 3.8 22:51:49 10° NNW 22:57:02 87° ENE 22:57:15 82° SE
Cosmos 1553 Rocket 3.9 22:53:16 10° N 22:59:36 84° E 23:00:44 62° SSE
Cosmos 1536 Rocket 4.2 23:03:26 49° NE 23:03:26 49° NE 23:06:51 10° NNE
Cosmos 2297 Rocket 2.6 22:59:45 10° NNW 23:05:15 49° ENE 23:05:55 46° E
Cosmos 1980 Rocket 4.0 23:12:31 17° ENE 23:12:31 17° ENE 23:14:48 10° NE
Cosmos 1544 Rocket 4.0 23:07:38 10° NNW 23:11:24 58° NW 23:11:24 58° NW
Cosmos 494 Rocket 4.4 23:08:13 10° N 23:13:17 50° ENE 23:13:19 50° ENE
Cosmos 1697 Rocket 3.2 23:15:35 45° E 23:15:35 45° E 23:20:15 10° NE
SL-24 R/B 4.4 23:09:57 10° NNE 23:15:48 89° ESE 23:15:53 87° S
Cosmos 1417 Rocket 4.4 23:12:53 10° N 23:19:01 68° E 23:19:33 65° ESE
S3M 4.1 23:14:54 10° N 23:21:07 60° E 23:21:42 57° ESE
Cosmos 2360 4.2 23:20:30 68° WSW 23:21:10 77° WNW 23:26:53 10° NNE
Meteor 2-20 Rocket 4.2 23:15:32 10° N 23:21:30 82° W 23:21:56 75° SSW
GEOS 3 Rocket 4.4 23:22:17 10° NE 23:26:03 40° ENE 23:26:03 40° ENE
Meteor 2-3 Rocket 4.4 23:38:20 42° E 23:38:20 42° E 23:43:23 10° NNE
Cosmos 2227 Rocket 3.0 23:32:45 10° N 23:38:08 41° ENE 23:38:48 40° ENE
Cosmos 1655 Rocket 4.1 23:38:29 58° ESE 23:38:46 59° E 23:45:01 10° NNE
BlueWalker 3 4.0 23:37:15 10° NW 23:38:56 25° NNW 23:38:56 25° NNW
ALOS 2 3.3 23:42:55 51° N 23:42:55 51° N 23:46:17 10° N
Gbstr 26 Del rocket 3.9 23:38:48 10° NW 23:44:27 78° NE 23:45:18 66° E
PSLV R/B 4.4 23:42:58 10° NNE 23:46:32 50° NE 23:46:32 50° NE
